Cosmos 1154 Rocket - Orbit

View from above orbital plane
View from above orbital plane
View from above satellite
View from above satellite

Ground track
Ground track

The orbit data is extracted from the following two-line orbital elements,

1 11683U 80008B   13144.47395386  .00019834  00000-0  34460-3 0   269
2 11683 081.1794 153.1619 0015663 358.4883 001.6314 15.50544661831708
Epoch (UTC): 24 May 2013 11:22:29
Eccentricity: 0.0015663
inclination: 81.1794°
perigee height: 404 km
apogee height: 426 km
right ascension of ascending node: 153.1619°
argument of perigee: 358.4883°
revolutions per day: 15.50544661
mean anomaly at epoch: 1.6314°
orbit number at epoch: 83170

The dashed part of the orbit path shows where the satellite is in the earth's shadow,  

Developed and maintained by Chris Peat, Heavens-Above GmbH. Please read the updated FAQ before sending e-mail. Imprint. DLR